Location: Cella
(44.7333°N, 10.5667°E)
Time: 06:57:30
(UTC+00:00)

ASTEX 1 - Pass Details

Date: 03 March 2021
Orbit: 721 x 743 km, 92.7° (Epoch: 19 April)

Event Time Altitude Azimuth Distance (km) Brightness Sun altitude
Rises 19:20:47 0° 4° (N) 3,149 6.8 -24.1°
Reaches altitude 10° 19:23:04 10° 4° (N) 2,222 6.0 -24.5°
Maximum altitude 19:27:59 82° 278° (W) 735 3.3 -25.4°
Enters shadow 19:30:10 33° 194° (SSW) 1,190 4.4 -25.7°
